User: anonymous   Login
Location: Castro Valley
(37.6940°N, 122.0850°W)
Time: 01:19:25
(UTC-08:00)
Language:

PANSAT - Orbit

View from above orbital plane
View from above orbital plane
View from above satellite
View from above satellite

Ground track
Ground track

The orbit data is extracted from the following two-line orbital elements,

1 25520U 98064B   18055.70144150  .00000759  00000-0  18628-4 0  9992
2 25520  28.4551  64.0328 0004811 284.7419  75.2643 15.28727699 72960
Epoch (UTC): 24 February 2018 16:50:04
Eccentricity: 0.0004811
inclination: 28.4551°
perigee height: 476 km
apogee height: 483 km
right ascension of ascending node: 64.0328°
argument of perigee: 284.7419°
revolutions per day: 15.28727699
mean anomaly at epoch: 75.2643°
orbit number at epoch: 7296

The dashed part of the orbit path shows where the satellite is in the earth's shadow,  

DLR